EW4337 Weather Reports


Display with metric or nautical units.
time (UTC)temp
F
wind
direction
speed
MPH
gust
MPH
rain 1hr
in
rain 24hr
in
rain mn
in
humidity
%
barometer
mb
20260502170203 71 283 6.0 8.0 0.00 0.00 0.00 68 1013.7
20260502163703 72 294 5.0 10.0 0.00 0.00 0.00 66 1013.8
20260502162703 73 255 6.0 10.0 0.00 0.00 0.00 66 1013.9
20260502162203 73 288 4.0 12.0 0.00 0.00 0.00 66 1013.9
20260502161703 73 290 8.0 12.0 0.00 0.00 0.00 65 1014.0
20260502160703 74 299 5.0 12.0 0.00 0.00 0.00 64 1014.0
20260502160203 74 254 8.0 13.0 0.00 0.00 0.00 63 1014.1
20260502152203 73 265 5.0 13.0 0.00 0.00 0.00 64 1014.3
20260502151703 73 234 5.0 9.0 0.00 0.00 0.00 63 1014.4
20260502151204 73 289 3.0 9.0 0.00 0.00 0.00 63 1014.5
20260502150703 73 264 5.0 12.0 0.00 0.00 0.00 63 1014.5
20260502150203 74 260 7.0 12.0 0.00 0.00 0.00 61 1014.6
20260502130704 73 261 7.0 12.0 0.00 0.00 0.00 60 1015.5
20260502123704 73 249 8.0 13.0 0.00 0.00 0.00 57 1015.7
20260502123204 73 210 6.0 10.0 0.00 0.00 0.00 58 1015.7
20260502122703 72 250 8.0 15.0 0.00 0.00 0.00 58 1015.7
20260502122204 71 237 9.0 14.0 0.00 0.00 0.00 58 1015.7
20260502121704 73 240 7.0 12.0 0.00 0.00 0.00 57 1015.8
20260502121204 73 261 9.0 14.0 0.00 0.00 0.00 55 1015.8
20260502120705 73 259 7.0 12.0 0.00 0.00 0.00 53 1015.8
20260502120204 74 248 7.0 12.0 0.00 0.00 0.00 49 1015.7
20260502115704 74 237 6.0 12.0 0.00 0.00 0.00 48 1015.8
20260502115206 74 212 6.0 12.0 0.00 0.00 0.00 46 1015.7
20260502114704 74 230 6.0 14.0 0.00 0.00 0.00 45 1015.8
20260502114204 75 239 7.0 16.0 0.00 0.00 0.00 44 1015.7
20260502113704 74 240 5.0 10.0 0.00 0.00 0.00 45 1015.8
20260502113204 73 245 9.0 15.0 0.00 0.00 0.00 44 1015.9
20260502112704 73 255 8.0 16.0 0.00 0.00 0.00 43 1016.0
20260502111704 73 228 7.0 12.0 0.00 0.00 0.00 42 1016.1
20260502111205 73 237 4.0 8.0 0.00 0.00 0.00 44 1016.0
20260502110704 72 243 3.0 12.0 0.00 0.00 0.00 46 1016.0
20260502105702 70 229 5.0 9.0 0.00 0.00 0.00 48 1016.1
20260502105202 70 244 5.0 10.0 0.00 0.00 0.00 47 1016.1
20260502104703 70 215 5.0 10.0 0.00 0.00 0.00 48 1016.2
20260502104202 70 217 5.0 12.0 0.00 0.00 0.00 47 1016.2
20260502103202 71 249 5.0 13.0 0.00 0.00 0.00 44 1016.2
20260502102702 72 223 3.0 9.0 0.00 0.00 0.00 44 1016.2
20260502102203 72 229 5.0 12.0 0.00 0.00 0.00 45 1016.2
20260502101202 70 221 3.0 7.0 0.00 0.00 0.00 46 1016.3
20260502100703 70 197 5.0 9.0 0.00 0.00 0.00 46 1016.3
20260502100202 70 216 3.0 6.0 0.00 0.00 0.00 48 1016.3
20260502091202 71 218 6.0 12.0 0.00 0.00 0.00 48 1016.5
20260502090202 72 200 5.0 13.0 0.00 0.00 0.00 48 1016.5
20260502071203 62 164 2.0 10.0 0.00 0.00 0.00 57 1016.8
20260502070703 61 152 5.0 12.0 0.00 0.00 0.00 58 1016.8
20260502070203 61 159 3.0 12.0 0.00 0.00 0.00 59 1016.8
20260502065703 60 170 5.0 10.0 0.00 0.00 0.00 61 1016.8
20260502065203 60 159 4.0 9.0 0.00 0.00 0.00 61 1016.8
20260502064703 59 171 5.0 8.0 0.00 0.00 0.00 62 1016.9
20260502064203 59 173 3.0 9.0 0.00 0.00 0.00 63 1016.8
20260502063703 58 156 4.0 8.0 0.00 0.00 0.00 64 1016.8
20260502063203 58 149 5.0 9.0 0.00 0.00 0.00 64 1016.8
20260502062703 57 144 4.0 9.0 0.00 0.00 0.00 64 1016.8
20260502062203 57 141 3.0 9.0 0.00 0.00 0.00 65 1016.8
20260502061703 56 158 5.0 8.0 0.00 0.00 0.00 65 1016.8
20260502061203 56 151 4.0 8.0 0.00 0.00 0.00 66 1016.8
20260502055703 55 141 4.0 6.0 0.00 0.00 0.00 67 1016.8
20260502055203 55 133 3.0 7.0 0.00 0.00 0.00 67 1016.9
20260502054704 54 153 3.0 7.0 0.00 0.00 0.00 68 1016.9
20260502054204 54 141 4.0 8.0 0.00 0.00 0.00 68 1017.0
20260502053703 54 148 3.0 8.0 0.00 0.00 0.00 68 1017.0
20260502053204 53 144 3.0 8.0 0.00 0.00 0.00 68 1016.9
20260502052703 53 141 3.0 8.0 0.00 0.00 0.00 69 1016.9
20260502052203 53 156 2.0 9.0 0.00 0.00 0.00 69 1016.9
20260502051703 53 142 4.0 9.0 0.00 0.00 0.00 69 1016.9
20260502051204 52 139 5.0 9.0 0.00 0.00 0.00 69 1016.9
20260502050703 52 137 5.0 10.0 0.00 0.00 0.00 70 1017.0
20260502045703 52 138 3.0 7.0 0.00 0.00 0.00 71 1017.0
20260502045203 51 146 3.0 7.0 0.00 0.00 0.00 71 1017.0
20260502044704 51 136 3.0 8.0 0.00 0.00 0.00 71 1017.0
20260502044203 51 139 5.0 8.0 0.00 0.00 0.00 71 1016.9
20260502043703 51 141 3.0 7.0 0.00 0.00 0.00 71 1017.0
20260502043203 51 145 3.0 7.0 0.00 0.00 0.00 71 1017.0
20260502042703 51 141 3.0 8.0 0.00 0.00 0.00 71 1017.0
20260502042204 51 142 3.0 7.0 0.00 0.00 0.00 71 1017.0
20260502041704 51 145 5.0 8.0 0.00 0.00 0.00 70 1017.1
20260502041203 51 142 4.0 6.0 0.00 0.00 0.00 71 1017.1
20260502040703 51 140 3.0 6.0 0.00 0.00 0.00 71 1017.2
20260502040204 51 146 4.0 8.0 0.00 0.00 0.00 71 1017.2
20260502035703 51 159 3.0 8.0 0.00 0.00 0.00 71 1017.2
20260502035203 51 148 3.0 8.0 0.00 0.00 0.00 72 1017.3
20260502034703 51 146 3.0 7.0 0.00 0.00 0.00 72 1017.3
20260502034204 51 140 3.0 7.0 0.00 0.00 0.00 72 1017.3
20260502033704 51 154 4.0 9.0 0.00 0.00 0.00 72 1017.4
20260502032703 51 158 3.0 6.0 0.00 0.00 0.00 71 1017.5
20260502032204 51 157 2.0 5.0 0.00 0.00 0.00 71 1017.5
20260502031203 51 153 3.0 6.0 0.00 0.00 0.00 72 1017.5
20260502030704 51 154 3.0 8.0 0.00 0.00 0.00 72 1017.5
20260502030203 51 154 3.0 6.0 0.00 0.00 0.00 72 1017.5
20260502025703 51 160 3.0 6.0 0.00 0.00 0.00 73 1017.5
20260502025204 51 147 3.0 7.0 0.00 0.00 0.00 74 1017.6
20260502024704 51 141 3.0 6.0 0.00 0.00 0.00 74 1017.7
20260502024204 51 161 2.0 7.0 0.00 0.00 0.00 73 1017.7
20260502023704 51 159 3.0 6.0 0.00 0.00 0.00 73 1017.7
20260502023203 51 157 2.0 3.0 0.00 0.00 0.00 73 1017.8
20260502022703 51 164 1.0 5.0 0.00 0.00 0.00 73 1017.8
20260502022203 51 157 2.0 5.0 0.00 0.00 0.00 73 1017.9
20260502021704 51 149 3.0 5.0 0.00 0.00 0.00 74 1017.9
20260502021204 51 128 2.0 3.0 0.00 0.00 0.00 74 1017.9
20260502020703 51 125 3.0 3.0 0.00 0.00 0.00 75 1017.9
20260502020203 51 127 2.0 6.0 0.00 0.00 0.00 75 1018.0
20260502015703 51 137 2.0 3.0 0.00 0.00 0.00 74 1018.0
20260502014703 52 142 2.0 3.0 0.00 0.00 0.00 74 1018.1
20260502014204 52 131 2.0 3.0 0.00 0.00 0.00 73 1018.1
20260502013703 53 130 3.0 7.0 0.00 0.00 0.00 72 1018.1
20260502013203 53 135 2.0 7.0 0.00 0.00 0.00 72 1018.2
20260502012703 53 130 3.0 7.0 0.00 0.00 0.00 72 1018.2
20260502012204 53 136 3.0 3.0 0.00 0.00 0.00 72 1018.3
20260502011704 53 134 3.0 5.0 0.00 0.00 0.00 72 1018.4
20260502010704 53 125 5.0 7.0 0.00 0.00 0.00 73 1018.4
20260502010203 52 116 3.0 7.0 0.00 0.00 0.00 75 1018.6
20260502005703 52 128 3.0 7.0 0.00 0.00 0.00 76 1018.6
20260502005204 52 130 3.0 7.0 0.00 0.00 0.00 77 1018.6
20260502004203 52 128 2.0 3.0 0.00 0.00 0.00 76 1018.7
20260502003703 52 128 2.0 3.0 0.00 0.00 0.00 77 1018.7
20260502003204 52 124 2.0 3.0 0.00 0.00 0.00 76 1018.8
20260502002704 52 119 1.0 3.0 0.00 0.00 0.00 76 1018.9
20260502002203 52 118 1.0 3.0 0.00 0.00 0.00 76 1018.9
20260502001703 53 121 1.0 3.0 0.00 0.00 0.00 76 1019.0
20260502001204 53 126 2.0 3.0 0.00 0.00 0.00 76 1019.0
20260502000704 53 119 2.0 3.0 0.00 0.00 0.00 76 1019.0
20260501235704 53 125 1.0 3.0 0.00 0.00 0.00 76 1019.1
20260501235204 53 115 2.0 3.0 0.00 0.00 0.00 75 1019.2
20260501234704 53 121 1.0 3.0 0.00 0.00 0.00 75 1019.2
20260501234203 53 128 2.0 3.0 0.00 0.00 0.00 74 1019.2
20260501233703 53 130 1.0 3.0 0.00 0.00 0.00 74 1019.3
20260501233204 54 121 1.0 3.0 0.00 0.00 0.00 74 1019.3
20260501232704 54 120 1.0 3.0 0.00 0.00 0.00 73 1019.3
20260501232203 54 129 1.0 3.0 0.00 0.00 0.00 73 1019.3
20260501231704 54 129 2.0 3.0 0.00 0.00 0.00 73 1019.3
20260501231204 54 102 2.0 3.0 0.00 0.00 0.00 72 1019.4
20260501230704 54 128 2.0 3.0 0.00 0.00 0.00 73 1019.4
20260501230204 55 122 2.0 3.0 0.00 0.00 0.00 72 1019.4
20260501225704 55 108 1.0 3.0 0.00 0.00 0.00 72 1019.5
20260501225204 55 126 2.0 5.0 0.00 0.00 0.00 72 1019.5
20260501224704 55 123 2.0 3.0 0.00 0.00 0.00 71 1019.6
20260501224204 55 127 1.0 3.0 0.00 0.00 0.00 71 1019.6
20260501223704 55 118 2.0 3.0 0.00 0.00 0.00 71 1019.6
20260501223204 55 123 2.0 3.0 0.00 0.00 0.00 71 1019.6
20260501222705 56 122 2.0 3.0 0.00 0.00 0.00 70 1019.7
20260501221204 56 120 2.0 3.0 0.00 0.00 0.00 69 1019.7
20260501220704 57 121 1.0 3.0 0.00 0.00 0.00 69 1019.7
20260501215704 57 118 2.0 3.0 0.00 0.00 0.00 68 1019.8
20260501214704 57 123 1.0 3.0 0.00 0.00 0.00 67 1019.8
20260501214204 58 134 1.0 3.0 0.00 0.00 0.00 67 1019.9
20260501213204 58 135 2.0 3.0 0.00 0.00 0.00 66 1019.9
20260501212703 58 137 2.0 3.0 0.00 0.00 0.00 65 1019.9
20260501212203 59 135 2.0 3.0 0.00 0.00 0.00 65 1019.9
20260501211203 59 118 1.0 3.0 0.00 0.00 0.00 63 1020.0
20260501210704 60 150 1.0 2.0 0.00 0.00 0.00 63 1020.0
20260501210203 60 150 0.0 2.0 0.00 0.00 0.00 62 1020.1
20260501205703 60 143 1.0 2.0 0.00 0.00 0.00 61 1020.1
20260501205203 60 140 1.0 3.0 0.00 0.00 0.00 61 1020.1
20260501204704 60 154 1.0 3.0 0.00 0.00 0.00 61 1020.1
20260501204204 60 161 0.0 1.0 0.00 0.00 0.00 61 1020.1
20260501203703 60 161 0.0 2.0 0.00 0.00 0.00 60 1020.2
20260501203203 61 162 1.0 1.0 0.00 0.00 0.00 60 1020.2
20260501202703 61 229 0.0 3.0 0.00 0.00 0.00 59 1020.3
20260501202204 61 174 0.0 3.0 0.00 0.00 0.00 59 1020.1
20260501201703 62 164 0.0 1.0 0.00 0.00 0.00 59 1020.1
20260501201204 62 136 0.0 0.0 0.00 0.00 0.00 58 1020.1
20260501200203 63 136 0.0 2.0 0.00 0.00 0.00 56 1020.1
20260501195703 63 136 1.0 1.0 0.00 0.00 0.00 55 1020.2
20260501195204 64 136 1.0 2.0 0.00 0.00 0.00 54 1020.2
20260501194703 65 117 1.0 2.0 0.00 0.00 0.00 53 1020.2
20260501193204 67 126 1.0 3.0 0.00 0.00 0.00 49 1020.1
20260501192704 67 127 1.0 3.0 0.00 0.00 0.00 48 1020.2
20260501192204 68 118 2.0 3.0 0.00 0.00 0.00 47 1020.1
20260501191704 68 117 2.0 3.0 0.00 0.00 0.00 46 1020.2
20260501191204 69 128 1.0 3.0 0.00 0.00 0.00 45 1020.1
20260501190704 69 113 2.0 3.0 0.00 0.00 0.00 44 1020.1
20260501190203 69 122 1.0 3.0 0.00 0.00 0.00 43 1020.1
20260501185703 70 135 2.0 6.0 0.00 0.00 0.00 43 1020.1
20260501185204 70 109 2.0 3.0 0.00 0.00 0.00 43 1020.1
20260501184704 71 119 2.0 3.0 0.00 0.00 0.00 42 1020.1
20260501184204 71 139 2.0 5.0 0.00 0.00 0.00 42 1020.2
20260501183704 71 136 2.0 3.0 0.00 0.00 0.00 42 1020.1
20260501183203 72 112 2.0 7.0 0.00 0.00 0.00 41 1020.1
20260501182703 72 116 3.0 6.0 0.00 0.00 0.00 41 1020.1
20260501181704 73 122 3.0 7.0 0.00 0.00 0.00 39 1020.1
20260501181204 73 124 3.0 8.0 0.00 0.00 0.00 39 1020.1
20260501180704 73 131 5.0 8.0 0.00 0.00 0.00 39 1020.1
20260501180204 74 117 3.0 8.0 0.00 0.00 0.00 38 1020.1
20260501175703 74 127 5.0 9.0 0.00 0.00 0.00 36 1020.1